Sacramento, CA

11:47 AM PDT on March 28, 2017 (GMT -0700)
Sacramento Executive

Weather History for KSAC - July, 2013

Change the Weather History Date:

Thursday, July 25, 2013

  Actual Average Record
Temperature  
Mean Temperature 79 °F -  
Max Temperature 94 °F 93 °F 112 °F (1975)
Min Temperature 64 °F 59 °F 51 °F (1951)
Degree Days  
Heating Degree Days 0    
Cooling Degree Days 14    
Growing Degree Days 28 (Base 50)    
Moisture  
Dew Point 54 °F    
Average Humidity 49    
Maximum Humidity 67    
Minimum Humidity 30    
Precipitation  
Precipitation 0.00 in 0.00 in 0.00 in (2017)
Month to date precipitation T 0.00  
Year to date precipitation 3.91 11.90  
Since 1 July precipitation T  
Sea Level Pressure  
Sea Level Pressure 29.89 in    
Wind  
Wind Speed 5 mph (South)    
Max Wind Speed 14 mph    
Max Gust Speed 18 mph    
Visibility 10 miles    
Events      
T = Trace of Precipitation, MM = Missing Value Source: NWS Daily Summary

Daily Weather History Graph

Daily Weather History Graph

Search for Another Location

Airport or City:

Trip Planner

Search our weather history database for the weather conditions in past years. The results will help you decide how hot, cold, wet, or windy it might be!

Date:

Astronomy

Jul. 25, 2013 Rise Set
Actual Time 6:02 AM PDT 8:22 PM PDT
Civil Twilight 5:32 AM PDT 8:52 PM PDT
Nautical Twilight 4:55 AM PDT 9:29 PM PDT
Astronomical Twilight 4:14 AM PDT 10:09 PM PDT
Moon 10:09 PM PDT (7/25) 9:34 AM PDT (7/25)
Length of Visible Light 15h 20m
Length of Day
14h 20m
Waning Gibbous, 87% of the Moon is Illuminated
Jul 25
Waning Gibbous
Jul 29
Last Quarter
Aug 6
New
Aug 14
First Quarter
Aug 20
Full

Hourly Weather History & Observations

Time (PDT) Temp. Heat Index Dew Point Humidity Pressure Visibility Wind Dir Wind Speed Gust Speed Precip Events Conditions
12:53 AM 70.0 °F - 53.1 °F 55% 29.86 in 10.0 mi South 3.5 mph - N/A   Clear
1:53 AM 69.1 °F - 53.1 °F 57% 29.86 in 10.0 mi SSE 4.6 mph - N/A   Clear
2:53 AM 68.0 °F - 53.1 °F 59% 29.87 in 10.0 mi SSW 5.8 mph - N/A   Clear
3:53 AM 66.9 °F - 53.1 °F 61% 29.86 in 10.0 mi South 3.5 mph - N/A   Clear
4:53 AM 66.0 °F - 52.0 °F 60% 29.87 in 10.0 mi South 4.6 mph - N/A   Clear
5:53 AM 64.9 °F - 52.0 °F 63% 29.88 in 10.0 mi Calm Calm - N/A   Clear
6:53 AM 64.9 °F - 53.1 °F 65% 29.89 in 10.0 mi SSW 6.9 mph - N/A   Clear
7:53 AM 66.0 °F - 54.0 °F 65% 29.91 in 10.0 mi South 4.6 mph - N/A   Clear
8:53 AM 69.1 °F - 55.0 °F 61% 29.92 in 10.0 mi South 4.6 mph - N/A   Clear
9:53 AM 73.9 °F - 55.0 °F 52% 29.93 in 10.0 mi Variable 4.6 mph - N/A   Clear
10:53 AM 80.1 °F 80.2 °F 55.9 °F 43% 29.93 in 10.0 mi South 6.9 mph - N/A   Clear
11:53 AM 84.9 °F 83.9 °F 57.0 °F 38% 29.92 in 10.0 mi SSW 8.1 mph - N/A   Clear
12:53 PM 89.1 °F 88.2 °F 59.0 °F 36% 29.91 in 10.0 mi Variable 4.6 mph - N/A   Clear
1:53 PM 91.9 °F 90.8 °F 57.9 °F 32% 29.89 in 10.0 mi SSW 9.2 mph - N/A   Clear
2:53 PM 93.0 °F 92.0 °F 57.9 °F 31% 29.88 in 10.0 mi SSW 9.2 mph 16.1 mph N/A   Clear
3:53 PM 93.0 °F 92.0 °F 57.9 °F 31% 29.87 in 10.0 mi SSW 11.5 mph 17.3 mph N/A   Clear
4:53 PM 93.9 °F 92.9 °F 57.9 °F 30% 29.86 in 10.0 mi SSW 10.4 mph - N/A   Clear
5:53 PM 90.0 °F 87.9 °F 55.0 °F 30% 29.86 in 10.0 mi South 9.2 mph 19.6 mph N/A   Clear
6:53 PM 86.0 °F 84.2 °F 54.0 °F 33% 29.86 in 10.0 mi SSW 12.7 mph 21.9 mph N/A   Clear
7:53 PM 80.1 °F - 52.0 °F 38% 29.87 in 10.0 mi SSW 6.9 mph - N/A   Clear
8:53 PM 75.0 °F - 50.0 °F 41% 29.89 in 10.0 mi Variable 4.6 mph - N/A   Clear
9:53 PM 71.1 °F - 50.0 °F 47% 29.92 in 10.0 mi South 5.8 mph - N/A   Clear
10:53 PM 69.1 °F - 51.1 °F 53% 29.93 in 10.0 mi South 3.5 mph - N/A   Clear
11:53 PM 68.0 °F - 52.0 °F 56% 29.94 in 10.0 mi SSE 6.9 mph - N/A   Clear